sat.trackr.live / text

‹ back to catalog

STARLINK-31420

NORAD 59223 · 2024-046Y

PAYLOAD ACTIVE UNKNOWN

§ Identity

Operator
Country
US
Launch date
2024-03-11
Launch site
AFWTR
Launch vehicle
Mass (kg)
RCS (m²)

Purposes: comms

External: N2YO · Heavens-Above · Gunter

§ Orbital elements

Epoch: 2026-09-20T10:10:31.714752Z

Period
93.85 min
Inclination
53.1617°
Eccentricity
0.0001193
Mean motion
15.34396805 rev/d
Perigee alt
461.9 km
Apogee alt
463.5 km
Semi-major
6,840.8 km
B*
4.6907e-5
RAAN
330.1494°
Arg perigee
94.9951°
Mean anomaly
265.1188°
Rev number
14,285

§ Raw data

STARLINK-314201 59223U 24046Y   26263.42397818  .00001209  00000+0  46907-4 0  99992 59223  53.1617 330.1494 0001193  94.9951 265.1188 15.34396805142856

JSON: /api/v1/satellites/59223 · /tle

For live sub-satellite position, see the globe view (requires WebGL).

§ Visibility from observer

Set your observer location to see the next 7 days of passes ≥ 10°. The values pass through the URL so the page stays shareable.

No JS? Fill the form by hand. The geolocation button needs JavaScript.